Simultaneous Nadir Overpasses (SNOs) Predictions

Prediction of SNOs between LANDSAT-8 and METOP-A Satellite Orbit:

Table of predicted SNOs for the next 14.0 days since TLE Epoch: 8/26/2017
Index Date (LANDSAT-8) Time (LANDSAT-8) Lat,Lon (LANDSAT-8) SZA (LANDSAT-8 ) Date (METOP-A) Time (METOP-A) Lat,Lon (METOP-A) SZA (METOP-A ) Distance(km) Time Diff (sec)
1 08/27/2017 05:09:16 -81.25, -35.28 106.50 08/27/2017 05:09:13 -81.25, -35.19 106.50 1.44 3
2 08/27/2017 05:58:42 81.25, 132.46 73.53 08/27/2017 05:59:52 81.26, 132.65 73.58 3.18 70
3 08/29/2017 23:54:06 81.22,-136.92 74.44 08/29/2017 23:52:54 81.22,-136.89 74.41 0.49 72
4 08/30/2017 00:43:32 -81.24, 31.06 105.51 08/30/2017 00:43:34 -81.24, 30.92 105.52 2.42 2
5 08/30/2017 01:32:18 81.79,-145.03 76.71 08/30/2017 01:33:31 81.31,-144.69 76.55 53.57 73
6 09/01/2017 19:28:20 81.24, -70.27 75.50 09/01/2017 19:27:13 81.23, -70.42 75.45 2.88 67
7 09/01/2017 20:17:47 -81.23, 97.36 104.49 09/01/2017 20:17:53 -81.24, 97.40 104.48 0.80 6
8 09/04/2017 15:02:36 81.22, -4.02 76.53 09/04/2017 15:01:33 81.23, -3.97 76.51 0.82 63
9 09/04/2017 15:52:02 -81.25, 164.01 103.41 09/04/2017 15:52:13 -81.24, 163.85 103.42 2.67 11
10 09/07/2017 10:36:51 81.23, 62.57 77.62 09/07/2017 10:35:53 81.23, 62.46 77.58 2.02 58




NCC Satellite Simultaneous Nadir Overpasses (SNOs) Prediction Service
